Date String (YYYY-MM-DD hh:mm:ss) UTC,Instrument flags,absolute air pressure of the measurement (hPa),sample flow rate (lpm),inlet stack bypass flow (lpm),air temperature of the measurement (°C),ambient temperature measured by the external sensor (°C),aerosol sample conditioner tube jacket temperature (°C),OPC LED temperature (°C),internal box temperature (°C),relative humidity of the measurement (%),span deviation,mass concentration of particles derived from Lorenz-Mie calculation of OPC scattering (μg/m³),mass concentration of particles derived from Lorenz-Mie calculation of OPC scattering (μg/m³),mass concentration of particles derived from Lorenz-Mie calculation of OPC scattering (μg/m³)
DateTimeUTC,F1_M11,P_M11,Q1_M11,Q2_M11,T1_M11,T2_M11,T3_M11,T4_M11,T5_M11,U1_M11,ZSPAN_M11,X2_M11,X0_M11,X1_M11
2024-04-29 20:00:00,SystemResetWarning,0825.3,4.99,000.00,026.1,025.3,000.0,034.5,027.9,014.7,0000.0,0003.50,0010.08,0001.51
2024-04-29 20:01:00,SystemResetWarning,0825.2,5.01,000.00,026.1,025.4,000.0,034.5,027.9,013.8,0000.0,0003.47,0010.26,0001.52
2024-04-29 20:02:00,SystemResetWarning,0825.2,5.01,000.00,026.1,025.4,000.0,034.5,027.9,014.0,0000.0,0003.46,0010.79,0001.50
2024-04-29 20:03:00,SystemResetWarning,0825.2,5.00,000.00,026.1,025.4,000.0,034.5,027.9,014.1,0000.0,0003.50,0010.15,0001.51
2024-04-29 20:04:00,SystemResetWarning,0825.2,5.00,000.00,026.1,025.4,000.0,034.5,027.9,014.4,0000.0,0003.51,0010.00,0001.51
2024-04-29 20:05:00,SystemResetWarning,0825.2,4.99,000.00,026.1,025.4,000.0,034.5,027.9,013.9,0000.0,0003.53,0010.68,0001.52
2024-04-29 20:06:00,SystemResetWarning,0825.2,4.99,000.00,026.1,025.4,000.0,034.5,027.9,013.7,0000.0,0003.52,0011.11,0001.53
2024-04-29 20:07:00,SystemResetWarning,0825.2,5.00,000.00,026.2,025.4,000.0,034.5,027.9,013.7,0000.0,0003.53,0011.61,0001.54
2024-04-29 20:08:00,SystemResetWarning,0825.2,5.01,000.00,026.2,025.4,000.0,034.5,027.9,013.9,0000.0,0003.49,0011.46,0001.54
2024-04-29 20:09:00,SystemResetWarning,0825.1,5.00,000.00,026.2,025.4,000.0,034.5,027.9,014.3,0000.0,0003.44,0011.46,0001.54
2024-04-29 20:10:00,SystemResetWarning,0825.1,4.99,000.00,026.2,025.4,000.0,034.5,028.0,014.1,0000.0,0003.40,0011.37,0001.53
2024-04-29 20:11:00,SystemResetWarning,0825.1,4.99,000.00,026.2,025.4,000.0,034.6,028.0,013.6,0000.0,0003.44,0011.51,0001.53
2024-04-29 20:12:00,SystemResetWarning,0825.1,5.01,000.00,026.2,025.5,000.0,034.6,028.0,013.8,0000.0,0003.44,0011.16,0001.52
2024-04-29 20:13:00,SystemResetWarning,0825.1,5.00,000.00,026.2,025.5,000.0,034.6,028.0,014.6,0000.0,0003.48,0010.71,0001.53
2024-04-29 20:14:00,SystemResetWarning,0825.1,5.00,000.00,026.2,024.8,000.0,034.6,027.5,013.9,0000.0,0003.45,0011.05,0001.53
2024-04-29 20:15:00,SystemResetWarning,0825.0,5.00,000.00,025.8,022.8,000.0,034.6,026.5,013.7,0000.0,0003.40,0010.81,0001.54
2024-04-29 20:16:00,SystemResetWarning,0825.0,5.00,000.00,025.4,022.4,000.0,034.6,026.1,014.0,0000.0,0003.39,0010.22,0001.53
2024-04-29 20:17:00,SystemResetWarning,0824.9,5.02,000.00,025.3,022.7,000.0,034.4,026.2,015.2,0000.0,0003.34,0009.48,0001.51
2024-04-29 20:18:00,SystemResetWarning,0824.9,4.99,000.00,025.3,023.1,000.0,034.3,026.5,014.3,0000.0,0003.30,0008.75,0001.50
2024-04-29 20:19:00,SystemResetWarning,0825.0,5.00,000.00,025.3,023.4,000.0,034.2,026.7,014.4,0000.0,0003.30,0008.67,0001.50
2024-04-29 20:20:00,SystemResetWarning,0824.9,5.00,000.00,025.3,023.6,000.0,034.1,026.9,014.9,0000.0,0003.34,0008.75,0001.50
2024-04-29 20:21:00,SystemResetWarning,0824.9,5.00,000.00,025.3,023.9,000.0,034.0,027.0,014.6,0000.0,0003.36,0008.65,0001.53
2024-04-29 20:22:00,SystemResetWarning,0824.9,5.00,000.00,025.4,024.1,000.0,034.0,027.1,014.2,0000.0,0003.38,0008.71,0001.53
2024-04-29 20:23:00,SystemResetWarning,0824.9,5.00,000.00,025.4,024.2,000.0,034.0,027.2,014.5,0000.0,0003.44,0008.90,0001.55
2024-04-29 20:24:00,SystemResetWarning,0824.9,5.00,000.00,025.4,024.4,000.0,034.0,027.2,014.5,0000.0,0003.43,0008.83,0001.56
2024-04-29 20:25:00,SystemResetWarning,0824.9,5.00,000.00,025.5,024.5,000.0,034.0,027.3,014.4,0000.0,0003.46,0008.38,0001.58
2024-04-29 20:26:00,SystemResetWarning,0824.9,5.00,000.00,025.5,024.6,000.0,034.0,027.3,014.6,0000.0,0003.49,0008.34,0001.58
2024-04-29 20:27:00,SystemResetWarning,0824.9,5.00,000.00,025.5,024.7,000.0,034.0,027.4,014.6,0000.0,0003.50,0008.70,0001.60
2024-04-29 20:28:00,SystemResetWarning,0824.9,5.00,000.00,025.6,024.8,000.0,034.0,027.4,014.0,0000.0,0003.60,0009.21,0001.61
2024-04-29 20:29:00,SystemResetWarning,0824.9,5.00,000.00,025.6,024.9,000.0,034.0,027.5,014.1,0000.0,0003.66,0009.73,0001.62
2024-04-29 20:30:00,SystemResetWarning,0824.8,5.00,000.00,025.7,024.9,000.0,034.0,027.5,014.3,0000.0,0003.72,0009.88,0001.65
2024-04-29 20:31:00,SystemResetWarning,0824.8,4.99,000.00,025.7,025.0,000.0,034.0,027.6,014.4,0000.0,0003.71,0009.79,0001.65
2024-04-29 20:32:00,SystemResetWarning,0824.8,5.00,000.00,025.7,025.1,000.0,034.0,027.6,015.2,0000.0,0003.74,0009.84,0001.65
2024-04-29 20:33:00,SystemResetWarning,0824.8,5.00,000.00,025.8,025.1,000.0,034.1,027.7,014.0,0000.0,0003.78,0009.92,0001.68
2024-04-29 20:34:00,SystemResetWarning,0824.7,5.00,000.00,025.8,025.2,000.0,034.1,027.7,014.2,0000.0,0003.72,0009.87,0001.68
2024-04-29 20:35:00,SystemResetWarning,0824.8,5.00,000.00,025.8,025.2,000.0,034.1,027.7,013.8,0000.0,0003.67,0009.72,0001.69
2024-04-29 20:36:00,SystemResetWarning,0824.7,5.00,000.00,025.9,025.3,000.0,034.1,027.7,013.9,0000.0,0003.67,0009.63,0001.70
2024-04-29 20:37:00,SystemResetWarning,0824.7,5.00,000.00,025.9,025.3,000.0,034.1,027.8,013.8,0000.0,0003.66,0009.65,0001.70
2024-04-29 20:38:00,SystemResetWarning,0824.7,5.00,000.00,025.9,025.3,000.0,034.2,027.8,013.9,0000.0,0003.67,0009.36,0001.69
2024-04-29 20:39:00,SystemResetWarning,0824.7,5.00,000.00,026.0,025.4,000.0,034.2,027.8,014.7,0000.0,0003.62,0009.01,0001.70
2024-04-29 20:40:00,SystemResetWarning,0824.7,5.00,000.00,026.0,025.4,000.0,034.2,027.8,014.4,0000.0,0003.54,0008.47,0001.72
2024-04-29 20:41:00,SystemResetWarning,0824.7,5.00,000.00,026.0,025.4,000.0,034.2,027.9,013.6,0000.0,0003.48,0008.52,0001.70
2024-04-29 20:42:00,SystemResetWarning,0824.6,4.99,000.00,026.0,024.8,000.0,034.3,027.5,013.9,0000.0,0003.49,0008.53,0001.69
2024-04-29 20:43:00,SystemResetWarning,0824.5,5.00,000.00,025.6,022.7,000.0,034.3,026.4,014.0,0000.0,0003.44,0008.32,0001.70
2024-04-29 20:44:00,SystemResetWarning,0824.4,5.00,000.00,025.2,021.9,000.0,034.3,025.8,014.6,0000.0,0003.41,0008.30,0001.70
2024-04-29 20:45:00,SystemResetWarning,0824.4,5.01,000.00,025.1,022.3,000.0,034.1,025.9,014.9,0000.0,0003.43,0008.77,0001.72
2024-04-29 20:46:00,SystemResetWarning,0824.4,5.00,000.00,025.0,022.7,000.0,034.0,026.2,014.1,0000.0,0003.48,0008.92,0001.73
2024-04-29 20:47:00,SystemResetWarning,0824.4,4.99,000.00,025.1,023.0,000.0,033.9,026.5,014.6,0000.0,0003.48,0008.99,0001.74
2024-04-29 20:48:00,SystemResetWarning,0824.4,4.99,000.00,025.1,023.3,000.0,033.8,026.7,014.2,0000.0,0003.48,0008.99,0001.73
2024-04-29 20:49:00,SystemResetWarning,0824.4,5.00,000.00,025.1,023.6,000.0,033.8,026.8,014.2,0000.0,0003.45,0008.88,0001.74
2024-04-29 20:50:00,SystemResetWarning,0824.4,5.01,000.00,025.2,023.9,000.0,033.8,026.9,014.2,0000.0,0003.46,0008.91,0001.74
2024-04-29 20:51:00,SystemResetWarning,0824.4,5.00,000.00,025.2,024.1,000.0,033.7,027.0,014.2,0000.0,0003.51,0009.61,0001.75
2024-04-29 20:52:00,SystemResetWarning,0824.4,4.98,000.00,025.3,024.2,000.0,033.7,027.1,013.6,0000.0,0003.52,0009.96,0001.75
2024-04-29 20:53:00,SystemResetWarning,0824.4,5.00,000.00,025.3,024.4,000.0,033.7,027.2,013.9,0000.0,0003.51,0010.30,0001.74
2024-04-29 20:54:00,SystemResetWarning,0824.4,5.01,000.00,025.4,024.5,000.0,033.7,027.2,014.0,0000.0,0003.57,0010.73,0001.74
2024-04-29 20:55:00,SystemResetWarning,0824.3,5.00,000.00,025.4,024.7,000.0,033.7,027.3,014.2,0000.0,0003.59,0010.81,0001.73
2024-04-29 20:56:00,SystemResetWarning,0824.4,4.99,000.00,025.5,024.7,000.0,033.8,027.4,014.0,0000.0,0003.62,0010.37,0001.73
2024-04-29 20:57:00,SystemResetWarning,0824.4,4.99,000.00,025.5,024.8,000.0,033.8,027.4,013.6,0000.0,0003.62,0010.56,0001.71
2024-04-29 20:58:00,SystemResetWarning,0824.3,5.00,000.00,025.6,024.9,000.0,033.8,027.5,013.8,0000.0,0003.61,0010.56,0001.70
2024-04-29 20:59:00,SystemResetWarning,0824.3,5.01,000.00,025.6,025.0,000.0,033.8,027.5,013.7,0000.0,0003.63,0010.52,0001.71
